Regional Weather Roundup
Issued by NWS San Angelo, TX

Home | Current Version | Previous Version | Text Only | Print | Product List | Glossary On
Versions: 1 2 3 4 5 6 7 8 9 10 11 12 13 14 15 16 17 18 19 20 21 22 23 24 25 26 27 28 29 30 31 32 33 34 35 36 37 38 39 40 41 42 43 44 45 46 47 48 49 50
000
ASUS44 KSJT 021710
RWRSJT
WEST CENTRAL TEXAS REGIONAL WEATHER ROUNDUP
NATIONAL WEATHER SERVICE SAN ANGELO TX
1100 AM CST MON MAR 02 2015

NOTE: "FAIR" INDICATES FEW OR NO CLOUDS BELOW 12,000 FEET WITH NO
SIGNIFICANT WEATHER AND/OR OBSTRUCTIONS TO VISIBILITY.

TXZ049-054-064>066-071>073-076>078-098-099-113-114-127-128-139-140-
154-155-168>170-021800
...LOCATIONS ACROSS WEST CENTRAL TEXAS...

CITY           SKY/WX    TMP DP  RH WIND       PRES   REMARKS
SAN ANGELO     CLOUDY    35  33  92 NE9       30.35S WCI  28
ABILENE        CLOUDY    31  29  92 N7        30.37F FOG     WCI  24
DYESS AFB      CLOUDY    30  28  89 N6        30.37F VSB 1   WCI  24
JUNCTION       CLOUDY    37  36  96 N7        30.33S FOG     WCI  32
SWEETWATER     CLOUDY    31  31 100 CALM      30.38F
BROWNWOOD      CLOUDY    34  32  93 N6        30.37S FOG     WCI  29
COLEMAN        CLOUDY    33  33 100 N7        30.36F FOG     WCI  27
SONORA         CLOUDY    36  36 100 N9        30.36  WCI  29
OZONA          CLOUDY    36  34  93 NE10      30.34  FOG     WCI  28
BRADY          MIX PCPN  36  34  93 N7        30.32F FOG     WCI  30
$$

TEXAS PANHANDLE/OKLAHOMA PANHANDLE

CITY           SKY/WX    TMP DP  RH WIND       PRES   REMARKS
AMARILLO       CLOUDY    29  27  92 S13       30.25F WCI  19
BORGER         CLOUDY    31  26  82 S10       30.28S HAZE    WCI  22
CANADIAN       PTSUNNY   34  26  72 S7        30.29F WCI  28
DALHART        CLOUDY    31  27  85 S20       30.20F FOG     WCI  19
DUMAS          CLOUDY    30  28  90 S17       30.22F FOG     WCI  18
GUYMON         NOT AVBL
HEREFORD       CLOUDY    31  31  99 S9        30.24F FOG     WCI  23
PAMPA          CLOUDY    31  25  80 S10       30.27F WCI  22
PERRYTON       CLOUDY    31  25  80 CALM      30.26F
$$

SOUTHERN PANHANDLE/SOUTH PLAINS/ROLLING PLAINS

CITY           SKY/WX    TMP DP  RH WIND       PRES   REMARKS
LUBBOCK        FOG       29  28  96 S10       30.30R VSB 1/4 WCI  20
SNYDER         CLOUDY    29  28  97 NE6       30.35F FOG     WCI  23
CHILDRESS      CLOUDY    32  25  75 CALM      30.37F
SEMINOLE       FOG       32  32 100 E7        30.30S VSB 1   WCI  25
$$

PERMIAN BASIN

CITY           SKY/WX    TMP DP  RH WIND       PRES   REMARKS
MIDLAND        FOG       32  32 100 NE12      30.29F VSB 1/2 WCI  23
ODESSA         CLOUDY    33  31  92 E12       30.28F FOG     WCI  24
WINK           CLOUDY    37  31  78 SE8       30.28F WCI  31
$$

FAR WEST/SOUTHWEST MOUNTAINS/TRANS PECOS

CITY           SKY/WX    TMP DP  RH WIND       PRES   REMARKS
ALPINE         CLOUDY    37  36  97 CALM      30.29F
DRYDEN           N/A     42  38  85 NE8       30.29F WCI  37
EL PASO        CLOUDY    54  34  46 S9        30.09S
FORT STOCKTON  CLOUDY    35  35 100 E6        30.29F FOG     WCI  30
GUADALUPE PASS NOT AVBL
MARFA          MOSUNNY   52  37  58 E5        30.22F
PECOS          CLOUDY    35  34  96 E8        30.30F FOG     WCI  29
$$

DALLAS/FORT WORTH METROPLEX

CITY           SKY/WX    TMP DP  RH WIND       PRES   REMARKS
DFW AIRPORT    DRIZZLE   35  34  96 N9        30.38F FOG     WCI  28
FTW MEACHAM    CLOUDY    37  34  89 N12       30.36F FOG     WCI  29
DAL-EXECUTIVE  FOG       36  35  96 N6        30.37S VSB 3/4 WCI  31
GRAND PRAIRIE  DRIZZLE   36  36 100 N8        30.38F WCI  29
ADDISON        CLOUDY    37  34  87 NW6       30.40F FOG     WCI  33
MESQUITE       CLOUDY    36  36 100 N8        30.39S FOG     WCI  29
LANCASTER      CLOUDY    36  34  92 N7        30.40S FOG     WCI  31
$$

NORTH CENTRAL TEXAS

CITY           SKY/WX    TMP DP  RH WIND       PRES   REMARKS
SHRMAN/DENISON CLOUDY    36  36 100 N7        30.40S FOG     WCI  31
GAINESVILLE    CLOUDY    33  32  95 N5        30.41S FOG     WCI  29
BRIDGEPORT     CLOUDY    34  34 100 NE5       30.38F FOG     WCI  30
DENTON         CLOUDY    35  34  96 N8        30.38F FOG     WCI  29
WAXAHACHIE     DRIZZLE   36  36 100 N8        30.39S WCI  29
GRANBURY       CLOUDY    37  34  91 N6        30.40  FOG     WCI  32
$$

WESTERN NORTH TEXAS

CITY           SKY/WX    TMP DP  RH WIND       PRES   REMARKS
WICHITA FALLS  CLOUDY    33  27  78 NW6       30.41R WCI  28
VERNON         CLOUDY    33  23  65 CALM      30.40S
BRECKENRIDGE   CLOUDY    33  32  96 N3        30.37F FOG
COMANCHE       FOG       34  34 100 N8        30.37S VSB 1   WCI  27
$$

CENTRAL AND SOUTH CENTRAL TEXAS

CITY           SKY/WX    TMP DP  RH WIND       PRES   REMARKS
AUSTIN/BERGSTM CLOUDY    42  39  89 N14       30.34F WCI  35
WACO           CLOUDY    38  36  92 N10       30.37F FOG     WCI  31
HILLSBORO      CLOUDY    37  36  94 N10       30.37  FOG     WCI  30
TEMPLE         CLOUDY    37  34  87 N8        30.35F WCI  31
KILLEEN-GRAY   CLOUDY    37  37 100 N10       30.34F FOG     WCI  30
FORT HOOD      CLOUDY    37  37 100 N9        30.34F FOG     WCI  31
GEORGETOWN     DRIZZLE   39  37  93 N10       30.34F WCI  32
LAGO VISTA     CLOUDY    39  38  96 N6        30.33S FOG     WCI  35
SAN MARCOS     CLOUDY    43  37  81 N16       30.34F WCI  35
NEW BRAUNFELS  CLOUDY    44  40  85 NE14      30.32S WCI  37
RANDOLPH AFB   CLOUDY    43  40  89 N12       30.31S WCI  37
SAN ANTONIO    CLOUDY    46  41  82 NE10      30.32R
STINSON        CLOUDY    45  41  86 NE10      30.31S WCI  40
PLEASANTON     NOT AVBL
LA GRANGE      CLOUDY    43  42  97 N8        30.32S FOG     WCI  38
GIDDINGS       CLOUDY    40  40  98 N9        30.37F FOG     WCI  34
$$

EAST TEXAS

CITY           SKY/WX    TMP DP  RH WIND       PRES   REMARKS
PARIS          CLOUDY    39  37  93 E8        30.40S WCI  34
CLARKSVILLE    NOT AVBL
TYLER          CLOUDY    43  40  89 NE8       30.35F FOG     WCI  38
LONGVIEW       CLOUDY    43  40  89 NE9       30.36S FOG     WCI  38
PALESTINE      FOG       43  43 100 N5        30.36S VSB 1
NACOGDOCHES    CLOUDY    45  43  93 N5        30.35R
$$

TEXAS HILL COUNTRY AND EDWARDS PLATEAU

CITY           SKY/WX    TMP DP  RH WIND       PRES   REMARKS
LLANO          CLOUDY    39  37  93 N5        30.39S WCI  36
HORSESHOE BAY  CLOUDY    39  39 100 N6        30.35S WCI  35
KERRVILLE      CLOUDY    39  37  95 N7        30.32S WCI  34
FREDERICKSBRG  CLOUDY    37  37  97 NE6       30.31F WCI  33
ROCKSPRINGS    NOT AVBL
HONDO          CLOUDY    46  41  82 NE6       30.34R
UVALDE         CLOUDY    44  42  92 N3        30.33R
DEL RIO        CLOUDY    45  42  89 NW7       30.32F
$$

SOUTHEAST TEXAS

CITY           SKY/WX    TMP DP  RH WIND       PRES   REMARKS
COLLEGE STN    CLOUDY    42  42 100 N10       30.34F FOG     WCI  36
CALDWELL       FOG       39  39 100 N7        30.37F VSB 1   WCI  34
CROCKETT       CLOUDY    48  48 100 N6        30.37S FOG
BRENHAM        FOG       45  44  97 N6        30.35R VSB 1
HUNTSVILLE     CLOUDY    47  46  97 VRB5      30.32S FOG
CONROE         CLOUDY    49  47  93 N7        30.31F
HOUSTON BUSH   CLOUDY    52  50  93 N7        30.31S FOG
HOUSTON HOBBY  CLOUDY    53  51  93 N6        30.30S FOG
PERLAND        CLOUDY    55  51  86 N6        30.31S FOG
WHARTON        CLOUDY    48  48  99 N12       30.32R FOG
$$

THE UPPER TEXAS COAST

CITY           SKY/WX    TMP DP  RH WIND       PRES   REMARKS
ORANGE         CLOUDY    55  54  95 N6        30.31S
PORT ARTHUR    CLOUDY    57  54  89 N7        30.29S
GALVESTON      FOG       52  52 100 N14       30.30R VSB 1
ANGLETON       CLOUDY    53  53 100 N9        30.29S FOG
BAY CITY       CLOUDY    53  53 100 N7        30.29S FOG
$$

TEXAS COASTAL BEND, RIO GRANDE PLAINS DEEP SOUTH TEXAS

CITY           SKY/WX    TMP DP  RH WIND       PRES   REMARKS
VICTORIA       CLOUDY    48  45  89 N12       30.31S
BEEVILLE       CLOUDY    45  45 100 N12       30.30F FOG     WCI  39
ROCKPORT       CLOUDY    51  47  86 N7        30.29S
PORT ARANSAS   CLOUDY    49  49  97 NE12      30.30R FOG
PORT LAVACA    CLOUDY    48  47  94 N12       30.31R FOG
CORPUS CHRISTI DRIZZLE   49  47  93 N10       30.30R FOG
KINGSVILLE NAS CLOUDY    49  48  97 N8        30.31R FOG
COTULLA        CLOUDY    47  44  90 NE8       30.31F
LAREDO         CLOUDY    47  46  96 N8        30.32S
BROWNSVILLE    FOG       55  55 100 N9        30.27R VSB 1
PORT ISABEL    FOG       56  55  97 NW12      30.26S VSB 3/4
HEBBRONVILLE   RAIN     N/A N/A N/A N7        30.29F
MCALLEN        CLOUDY    53  51  93 N5        30.30S FOG
WESLACO        CLOUDY    51  50  95 N7        30.29S FOG
FALFURRIAS     CLOUDY    48  47  94 N5        30.29F
EDINBURG       FOG       52  50  93 N7        30.30F VSB 1
$$


USA.gov is the U.S. government's official web portal to all federal, state and local government web resources and services.